| time (UTC) | temp F | wind direction | speed MPH | gust MPH | rain 1hr in | rain 24hr in | rain mn in | humidity % | barometer mb |
| 20260904223524 | 75 | 279 | 3.0 | 9.0 | 0.00 | 0.00 | 0.00 | 61 | 1006.8 |
| 20260904223026 | 75 | 297 | 3.0 | 10.0 | 0.00 | 0.00 | 0.00 | 61 | 1006.9 |
| 20260904222527 | 75 | 298 | 5.0 | 11.0 | 0.00 | 0.00 | 0.00 | 60 | 1006.9 |
| 20260904222023 | 75 | 298 | 5.0 | 13.0 | 0.00 | 0.00 | 0.00 | 60 | 1006.9 |
| 20260904221523 | 75 | 317 | 6.0 | 14.0 | 0.00 | 0.00 | 0.00 | 59 | 1006.8 |
| 20260904221024 | 76 | 5 | 5.0 | 16.0 | 0.00 | 0.00 | 0.00 | 59 | 1006.8 |
| 20260904220522 | 76 | 302 | 5.0 | 16.0 | 0.00 | 0.00 | 0.00 | 58 | 1006.9 |
| 20260904220022 | 76 | 315 | 5.0 | 15.0 | 0.00 | 0.00 | 0.00 | 57 | 1006.8 |
| 20260904215522 | 76 | 306 | 5.0 | 12.0 | 0.00 | 0.00 | 0.00 | 57 | 1006.7 |
| 20260904215021 | 76 | 304 | 2.0 | 11.0 | 0.00 | 0.00 | 0.00 | 59 | 1006.7 |
| 20260904214521 | 76 | 345 | 4.0 | 13.0 | 0.00 | 0.00 | 0.00 | 61 | 1006.7 |
| 20260904214024 | 76 | 296 | 3.0 | 16.0 | 0.00 | 0.00 | 0.00 | 62 | 1006.7 |
| 20260904213521 | 76 | 323 | 8.0 | 16.0 | 0.00 | 0.00 | 0.00 | 60 | 1006.7 |
| 20260904213021 | 77 | 317 | 7.0 | 17.0 | 0.00 | 0.00 | 0.00 | 60 | 1006.7 |
| 20260904212521 | 77 | 307 | 9.0 | 17.0 | 0.00 | 0.00 | 0.00 | 59 | 1006.7 |
| 20260904212021 | 77 | 355 | 7.0 | 14.0 | 0.00 | 0.00 | 0.00 | 60 | 1006.8 |
| 20260904211519 | 77 | 294 | 7.0 | 15.0 | 0.00 | 0.00 | 0.00 | 59 | 1006.8 |
| 20260904211022 | 77 | 313 | 7.0 | 19.0 | 0.00 | 0.00 | 0.00 | 59 | 1006.7 |
| 20260904210521 | 77 | 317 | 11.0 | 19.0 | 0.00 | 0.00 | 0.00 | 58 | 1006.7 |
| 20260904210019 | 77 | 348 | 10.0 | 15.0 | 0.00 | 0.00 | 0.00 | 57 | 1006.8 |
| 20260904205519 | 77 | 300 | 7.0 | 15.0 | 0.00 | 0.00 | 0.00 | 58 | 1006.7 |
| 20260904205020 | 77 | 325 | 6.0 | 15.0 | 0.00 | 0.00 | 0.00 | 60 | 1006.6 |
| 20260904204521 | 76 | 300 | 5.0 | 14.0 | 0.00 | 0.00 | 0.00 | 61 | 1006.7 |
| 20260904204017 | 76 | 339 | 5.0 | 11.0 | 0.00 | 0.00 | 0.00 | 64 | 1006.6 |
| 20260904203516 | 75 | 324 | 2.0 | 9.0 | 0.00 | 0.00 | 0.00 | 68 | 1006.6 |
| 20260904203021 | 75 | 328 | 3.0 | 9.0 | 0.00 | 0.00 | 0.00 | 70 | 1006.7 |
| 20260904202516 | 75 | 272 | 1.0 | 4.0 | 0.00 | 0.00 | 0.00 | 74 | 1006.7 |
| 20260904202017 | 74 | 252 | 1.0 | 4.0 | 0.00 | 0.00 | 0.00 | 73 | 1006.6 |
| 20260904201533 | 74 | 259 | 1.0 | 4.0 | 0.00 | 0.00 | 0.00 | 77 | 1006.6 |
| 20260904201015 | 74 | 188 | 1.0 | 4.0 | 0.00 | 0.00 | 0.00 | 77 | 1006.7 |
| 20260904200516 | 74 | 272 | 1.0 | 4.0 | 0.00 | 0.00 | 0.00 | 77 | 1006.8 |
| 20260904200031 | 74 | 269 | 0.0 | 6.0 | 0.00 | 0.00 | 0.00 | 78 | 1006.8 |
| 20260904195514 | 74 | 268 | 1.0 | 6.0 | 0.00 | 0.00 | 0.00 | 78 | 1006.7 |
| 20260904195015 | 74 | 192 | 1.0 | 6.0 | 0.00 | 0.00 | 0.00 | 79 | 1006.7 |
| 20260904194513 | 74 | 275 | 2.0 | 6.0 | 0.00 | 0.00 | 0.00 | 79 | 1006.7 |
| 20260904194013 | 73 | 300 | 1.0 | 3.0 | 0.00 | 0.00 | 0.00 | 80 | 1006.9 |
| 20260904193513 | 73 | 355 | 0.0 | 5.0 | 0.00 | 0.00 | 0.00 | 79 | 1006.8 |
| 20260904193013 | 73 | 355 | 1.0 | 9.0 | 0.00 | 0.00 | 0.00 | 78 | 1007.0 |
| 20260904192516 | 73 | 306 | 4.0 | 9.0 | 0.00 | 0.00 | 0.00 | 76 | 1007.0 |
| 20260904192012 | 73 | 233 | 2.0 | 4.0 | 0.00 | 0.00 | 0.00 | 77 | 1007.2 |
| 20260904191514 | 73 | 267 | 1.0 | 4.0 | 0.00 | 0.00 | 0.00 | 77 | 1007.3 |
| 20260904191011 | 74 | 213 | 1.0 | 5.0 | 0.00 | 0.00 | 0.00 | 76 | 1007.3 |
| 20260904190511 | 74 | 201 | 2.0 | 6.0 | 0.00 | 0.00 | 0.00 | 76 | 1007.2 |
| 20260904190012 | 75 | 169 | 2.0 | 6.0 | 0.00 | 0.00 | 0.00 | 76 | 1007.1 |
| 20260904185511 | 75 | 163 | 1.0 | 3.0 | 0.00 | 0.00 | 0.00 | 76 | 1007.2 |
| 20260904185011 | 76 | 162 | 0.0 | 4.0 | 0.00 | 0.00 | 0.00 | 76 | 1007.1 |
| 20260904184511 | 77 | 146 | 1.0 | 4.0 | 0.00 | 0.00 | 0.00 | 75 | 1007.0 |
| 20260904184014 | 77 | 29 | 0.0 | 3.0 | 0.00 | 0.00 | 0.00 | 74 | 1007.1 |
| 20260904183611 | 77 | 26 | 0.0 | 2.0 | 0.00 | 0.00 | 0.00 | 73 | 1007.0 |
| 20260904183013 | 77 | 10 | 0.0 | 4.0 | 0.00 | 0.00 | 0.00 | 69 | 1007.0 |
| 20260904182510 | 77 | 10 | 0.0 | 4.0 | 0.00 | 0.00 | 0.00 | 71 | 1007.0 |
| 20260904182008 | 77 | 5 | 2.0 | 4.0 | 0.00 | 0.00 | 0.00 | 74 | 1007.0 |
| 20260904181507 | 77 | 355 | 0.0 | 2.0 | 0.00 | 0.00 | 0.00 | 74 | 1007.1 |
| 20260904181007 | 77 | 355 | 0.0 | 2.0 | 0.00 | 0.00 | 0.00 | 72 | 1007.3 |
| 20260904180506 | 77 | 355 | 0.0 | 3.0 | 0.00 | 0.00 | 0.00 | 71 | 1007.3 |
| 20260904180007 | 77 | 355 | 0.0 | 3.0 | 0.00 | 0.00 | 0.00 | 71 | 1007.4 |
| 20260904175508 | 77 | 348 | 1.0 | 4.0 | 0.00 | 0.00 | 0.00 | 69 | 1007.3 |
| 20260904175006 | 78 | 346 | 1.0 | 4.0 | 0.00 | 0.00 | 0.00 | 70 | 1007.2 |
| 20260904174506 | 78 | 332 | 2.0 | 4.0 | 0.00 | 0.00 | 0.00 | 70 | 1007.2 |
| 20260904174005 | 78 | 33 | 2.0 | 4.0 | 0.00 | 0.00 | 0.00 | 73 | 1007.3 |
| 20260904173503 | 77 | 69 | 1.0 | 3.0 | 0.00 | 0.00 | 0.00 | 76 | 1007.4 |
| 20260904173004 | 76 | 79 | 0.0 | 3.0 | 0.00 | 0.00 | 0.00 | 73 | 1007.4 |
| 20260904172503 | 76 | 73 | 1.0 | 4.0 | 0.00 | 0.00 | 0.00 | 76 | 1007.5 |
| 20260904172003 | 75 | 69 | 1.0 | 4.0 | 0.00 | 0.00 | 0.00 | 77 | 1007.6 |
| 20260904171501 | 75 | 65 | 1.0 | 4.0 | 0.00 | 0.00 | 0.00 | 77 | 1007.7 |
| 20260904171000 | 75 | 65 | 1.0 | 4.0 | 0.00 | 0.00 | 0.00 | 77 | 1007.8 |
| 20260904170700 | 75 | 63 | 2.0 | 4.0 | 0.00 | 0.00 | 0.00 | 78 | 1007.8 |
| 20260904170100 | 75 | 53 | 0.0 | 3.0 | 0.00 | 0.00 | 0.00 | 79 | 1007.8 |
| 20260904165600 | 75 | 163 | 0.0 | 5.0 | 0.00 | 0.00 | 0.00 | 77 | 1007.8 |
| 20260904165059 | 75 | 164 | 1.0 | 5.0 | 0.00 | 0.00 | 0.00 | 77 | 1007.8 |
| 20260904164601 | 75 | 140 | 2.0 | 4.0 | 0.00 | 0.00 | 0.00 | 77 | 1008.0 |
| 20260904164059 | 75 | 74 | 2.0 | 4.0 | 0.00 | 0.00 | 0.00 | 76 | 1008.1 |
| 20260904163558 | 76 | 99 | 1.0 | 3.0 | 0.00 | 0.00 | 0.00 | 74 | 1008.2 |
| 20260904163059 | 76 | 96 | 1.0 | 3.0 | 0.00 | 0.00 | 0.00 | 74 | 1008.2 |
| 20260904162557 | 76 | 110 | 0.0 | 6.0 | 0.00 | 0.00 | 0.00 | 73 | 1008.1 |
| 20260904162057 | 77 | 355 | 2.0 | 6.0 | 0.00 | 0.00 | 0.00 | 73 | 1008.4 |
| 20260904161601 | 77 | 32 | 1.0 | 4.0 | 0.00 | 0.00 | 0.00 | 73 | 1008.3 |
| 20260904161055 | 77 | 83 | 1.0 | 4.0 | 0.00 | 0.00 | 0.00 | 75 | 1008.3 |
| 20260904160556 | 77 | 96 | 0.0 | 3.0 | 0.00 | 0.00 | 0.00 | 73 | 1008.5 |
| 20260904160059 | 77 | 98 | 0.0 | 4.0 | 0.00 | 0.01 | 0.00 | 73 | 1008.4 |
| 20260904155558 | 77 | 144 | 1.0 | 4.0 | 0.00 | 0.01 | 0.00 | 73 | 1008.4 |
| 20260904155055 | 77 | 97 | 2.0 | 4.0 | 0.00 | 0.01 | 0.00 | 76 | 1008.4 |
| 20260904154551 | 77 | 55 | 1.0 | 4.0 | 0.00 | 0.01 | 0.00 | 75 | 1008.5 |
| 20260904154053 | 76 | 85 | 1.0 | 4.0 | 0.00 | 0.01 | 0.00 | 75 | 1008.6 |
| 20260904153549 | 76 | 30 | 1.0 | 4.0 | 0.00 | 0.01 | 0.00 | 76 | 1008.7 |
| 20260904153107 | 76 | 21 | 1.0 | 4.0 | 0.00 | 0.01 | 0.00 | 77 | 1008.7 |
| 20260904152546 | 75 | 88 | 1.0 | 4.0 | 0.00 | 0.01 | 0.00 | 78 | 1008.7 |
| 20260904152045 | 75 | 92 | 2.0 | 4.0 | 0.00 | 0.01 | 0.00 | 80 | 1008.8 |
| 20260904151544 | 74 | 132 | 1.0 | 4.0 | 0.00 | 0.01 | 0.00 | 82 | 1008.8 |
| 20260904151042 | 74 | 52 | 1.0 | 4.0 | 0.00 | 0.01 | 0.00 | 82 | 1008.9 |
| 20260904150540 | 73 | 32 | 2.0 | 4.0 | 0.00 | 0.01 | 0.00 | 83 | 1009.0 |
| 20260904150039 | 72 | 72 | 1.0 | 3.0 | 0.00 | 0.03 | 0.00 | 84 | 1008.8 |
| 20260904145538 | 72 | 74 | 1.0 | 3.0 | 0.00 | 0.03 | 0.00 | 87 | 1008.8 |
| 20260904145035 | 71 | 17 | 0.0 | 4.0 | 0.00 | 0.03 | 0.00 | 90 | 1008.9 |
| 20260904144534 | 70 | 15 | 1.0 | 4.0 | 0.00 | 0.03 | 0.00 | 90 | 1008.9 |
| 20260904144034 | 69 | 346 | 1.0 | 4.0 | 0.00 | 0.03 | 0.00 | 92 | 1009.1 |
| 20260904143533 | 69 | 5 | 1.0 | 4.0 | 0.00 | 0.03 | 0.00 | 93 | 1009.0 |
| 20260904143035 | 68 | 355 | 1.0 | 3.0 | 0.00 | 0.03 | 0.00 | 95 | 1009.0 |
| 20260904142529 | 68 | 22 | 1.0 | 5.0 | 0.00 | 0.03 | 0.00 | 96 | 1009.0 |
| 20260904142028 | 67 | 23 | 3.0 | 5.0 | 0.00 | 0.03 | 0.00 | 97 | 1009.1 |
| 20260904141526 | 66 | 341 | 1.0 | 5.0 | 0.00 | 0.03 | 0.00 | 96 | 1009.3 |
| 20260904141024 | 66 | 24 | 1.0 | 5.0 | 0.00 | 0.03 | 0.00 | 96 | 1009.4 |
| 20260904140526 | 65 | 12 | 1.0 | 5.0 | 0.00 | 0.03 | 0.00 | 97 | 1009.3 |
| 20260904140022 | 65 | 26 | 2.0 | 5.0 | 0.00 | 0.03 | 0.00 | 97 | 1009.2 |
| 20260904135522 | 65 | 342 | 2.0 | 5.0 | 0.00 | 0.03 | 0.00 | 97 | 1009.2 |
| 20260904135021 | 65 | 336 | 2.0 | 4.0 | 0.00 | 0.03 | 0.00 | 97 | 1009.1 |
| 20260904134523 | 64 | 360 | 2.0 | 4.0 | 0.00 | 0.03 | 0.00 | 97 | 1009.1 |
| 20260904134020 | 64 | 5 | 1.0 | 4.0 | 0.00 | 0.03 | 0.00 | 97 | 1009.1 |
| 20260904133520 | 64 | 23 | 2.0 | 4.0 | 0.00 | 0.03 | 0.00 | 97 | 1009.2 |
| 20260904133019 | 64 | 5 | 2.0 | 4.0 | 0.00 | 0.03 | 0.00 | 97 | 1009.3 |
| 20260904132523 | 64 | 360 | 1.0 | 4.0 | 0.00 | 0.03 | 0.00 | 97 | 1009.3 |
| 20260904132018 | 64 | 342 | 2.0 | 4.0 | 0.00 | 0.03 | 0.00 | 97 | 1009.3 |
| 20260904131517 | 64 | 25 | 2.0 | 4.0 | 0.00 | 0.03 | 0.00 | 97 | 1009.2 |
| 20260904131016 | 64 | 343 | 1.0 | 5.0 | 0.00 | 0.03 | 0.00 | 97 | 1009.2 |
| 20260904130519 | 64 | 14 | 2.0 | 5.0 | 0.00 | 0.03 | 0.00 | 97 | 1009.2 |
| 20260904130015 | 64 | 19 | 2.0 | 4.0 | 0.00 | 0.04 | 0.00 | 97 | 1009.2 |
| 20260904125514 | 64 | 344 | 2.0 | 5.0 | 0.00 | 0.04 | 0.00 | 97 | 1009.2 |
| 20260904125014 | 64 | 339 | 1.0 | 5.0 | 0.00 | 0.04 | 0.00 | 97 | 1009.2 |
| 20260904124513 | 64 | 355 | 2.0 | 5.0 | 0.00 | 0.04 | 0.00 | 97 | 1009.1 |
| 20260904124014 | 64 | 5 | 2.0 | 4.0 | 0.00 | 0.04 | 0.00 | 97 | 1009.2 |
| 20260904123512 | 64 | 355 | 2.0 | 4.0 | 0.00 | 0.04 | 0.00 | 97 | 1009.1 |
| 20260904123012 | 64 | 313 | 1.0 | 3.0 | 0.00 | 0.04 | 0.00 | 97 | 1009.1 |
| 20260904122515 | 64 | 333 | 1.0 | 3.0 | 0.00 | 0.04 | 0.00 | 97 | 1009.1 |
| 20260904122010 | 64 | 334 | 1.0 | 4.0 | 0.00 | 0.04 | 0.00 | 97 | 1009.2 |
| 20260904121510 | 64 | 331 | 1.0 | 4.0 | 0.00 | 0.04 | 0.00 | 97 | 1009.2 |
| 20260904121008 | 64 | 273 | 1.0 | 2.0 | 0.00 | 0.04 | 0.00 | 97 | 1009.2 |
| 20260904120507 | 63 | 269 | 0.0 | 3.0 | 0.00 | 0.04 | 0.00 | 97 | 1009.2 |
| 20260904120007 | 63 | 269 | 0.0 | 4.0 | 0.00 | 0.04 | 0.00 | 97 | 1009.2 |
| 20260904115506 | 63 | 340 | 1.0 | 4.0 | 0.00 | 0.04 | 0.00 | 97 | 1009.2 |
| 20260904115006 | 63 | 279 | 1.0 | 3.0 | 0.00 | 0.04 | 0.00 | 97 | 1009.2 |
| 20260904114505 | 63 | 266 | 1.0 | 3.0 | 0.00 | 0.04 | 0.00 | 97 | 1009.2 |
| 20260904114008 | 63 | 225 | 0.0 | 2.0 | 0.00 | 0.04 | 0.00 | 97 | 1009.0 |
| 20260904113503 | 63 | 225 | 0.0 | 2.0 | 0.00 | 0.04 | 0.00 | 97 | 1009.1 |
| 20260904113005 | 63 | 224 | 0.0 | 3.0 | 0.00 | 0.04 | 0.00 | 97 | 1009.1 |
| 20260904112502 | 63 | 221 | 1.0 | 4.0 | 0.00 | 0.04 | 0.00 | 97 | 1009.0 |
| 20260904112001 | 63 | 288 | 1.0 | 4.0 | 0.00 | 0.04 | 0.00 | 97 | 1009.0 |
| 20260904111601 | 63 | 311 | 0.0 | 2.0 | 0.00 | 0.04 | 0.00 | 97 | 1009.1 |
| 20260904111059 | 63 | 313 | 0.0 | 2.0 | 0.00 | 0.04 | 0.00 | 97 | 1009.1 |
| 20260904110558 | 63 | 313 | 0.0 | 2.0 | 0.00 | 0.04 | 0.00 | 97 | 1009.1 |
| 20260904110058 | 63 | 309 | 0.0 | 1.0 | 0.00 | 0.06 | 0.00 | 97 | 1009.1 |
| 20260904105558 | 63 | 309 | 0.0 | 1.0 | 0.00 | 0.06 | 0.00 | 97 | 1009.2 |
| 20260904105058 | 63 | 309 | 0.0 | 1.0 | 0.00 | 0.06 | 0.00 | 97 | 1009.0 |
| 20260904104556 | 63 | 309 | 0.0 | 2.0 | 0.00 | 0.06 | 0.00 | 97 | 1009.1 |
| 20260904104055 | 63 | 309 | 0.0 | 2.0 | 0.00 | 0.06 | 0.00 | 97 | 1009.1 |
| 20260904103555 | 63 | 309 | 0.0 | 2.0 | 0.00 | 0.06 | 0.00 | 97 | 1009.0 |
| 20260904103055 | 63 | 309 | 0.0 | 3.0 | 0.00 | 0.06 | 0.00 | 97 | 1008.9 |
| 20260904102555 | 63 | 308 | 0.0 | 3.0 | 0.00 | 0.06 | 0.00 | 97 | 1008.9 |
| 20260904102055 | 63 | 307 | 0.0 | 3.0 | 0.00 | 0.06 | 0.00 | 97 | 1008.9 |
| 20260904101555 | 63 | 308 | 0.0 | 1.0 | 0.00 | 0.06 | 0.00 | 97 | 1008.9 |
| 20260904101056 | 63 | 308 | 0.0 | 1.0 | 0.00 | 0.06 | 0.00 | 97 | 1008.9 |
| 20260904100553 | 63 | 308 | 0.0 | 3.0 | 0.00 | 0.06 | 0.00 | 97 | 1008.9 |
| 20260904100054 | 63 | 308 | 0.0 | 4.0 | 0.00 | 0.07 | 0.00 | 97 | 1008.9 |
| 20260904095654 | 63 | 300 | 0.0 | 4.0 | 0.00 | 0.07 | 0.00 | 97 | 1009.0 |
| 20260904095053 | 63 | 323 | 1.0 | 5.0 | 0.00 | 0.07 | 0.00 | 97 | 1008.9 |
| 20260904094555 | 63 | 325 | 1.0 | 5.0 | 0.00 | 0.07 | 0.00 | 97 | 1008.8 |
| 20260904094053 | 63 | 328 | 1.0 | 5.0 | 0.00 | 0.07 | 0.00 | 97 | 1008.8 |
| 20260904093553 | 63 | 296 | 1.0 | 4.0 | 0.00 | 0.07 | 0.00 | 97 | 1008.7 |
| 20260904093052 | 63 | 290 | 1.0 | 4.0 | 0.00 | 0.07 | 0.00 | 97 | 1008.7 |
| 20260904092552 | 63 | 343 | 0.0 | 3.0 | 0.00 | 0.07 | 0.00 | 97 | 1008.6 |
| 20260904092053 | 63 | 255 | 1.0 | 3.0 | 0.00 | 0.07 | 0.00 | 97 | 1008.6 |
| 20260904091551 | 63 | 254 | 0.0 | 2.0 | 0.00 | 0.07 | 0.00 | 97 | 1008.6 |
| 20260904091050 | 63 | 254 | 0.0 | 3.0 | 0.00 | 0.07 | 0.00 | 97 | 1008.7 |
| 20260904090549 | 63 | 255 | 1.0 | 3.0 | 0.00 | 0.07 | 0.00 | 96 | 1008.6 |
| 20260904090049 | 62 | 250 | 0.0 | 3.0 | 0.00 | 0.07 | 0.00 | 96 | 1008.6 |
| 20260904085549 | 62 | 209 | 0.0 | 2.0 | 0.00 | 0.07 | 0.00 | 96 | 1008.6 |
| 20260904085049 | 62 | 207 | 0.0 | 1.0 | 0.00 | 0.07 | 0.00 | 96 | 1008.7 |
| 20260904084557 | 62 | 207 | 0.0 | 1.0 | 0.00 | 0.07 | 0.00 | 96 | 1008.6 |
| 20260904084053 | 62 | 207 | 0.0 | 2.0 | 0.00 | 0.07 | 0.00 | 96 | 1008.5 |
| 20260904083551 | 62 | 207 | 0.0 | 2.0 | 0.00 | 0.07 | 0.00 | 96 | 1008.4 |
| 20260904083052 | 62 | 207 | 1.0 | 2.0 | 0.00 | 0.07 | 0.00 | 96 | 1008.5 |
| 20260904082549 | 62 | 207 | 0.0 | 2.0 | 0.00 | 0.07 | 0.00 | 96 | 1008.6 |
| 20260904082047 | 62 | 207 | 0.0 | 2.0 | 0.00 | 0.07 | 0.00 | 96 | 1008.8 |
| 20260904081547 | 62 | 207 | 0.0 | 2.0 | 0.00 | 0.07 | 0.00 | 96 | 1008.9 |
| 20260904081046 | 62 | 207 | 0.0 | 2.0 | 0.00 | 0.07 | 0.00 | 96 | 1008.9 |
| 20260904080547 | 62 | 206 | 0.0 | 3.0 | 0.00 | 0.07 | 0.00 | 96 | 1008.8 |
| 20260904075545 | 62 | 201 | 0.0 | 0.0 | 0.00 | 0.07 | 0.00 | 96 | 1008.9 |
| 20260904075045 | 62 | 200 | 0.0 | 0.0 | 0.00 | 0.07 | 0.00 | 96 | 1008.9 |
| 20260904074544 | 62 | 200 | 0.0 | 0.0 | 0.00 | 0.07 | 0.00 | 96 | 1008.9 |
| 20260904074048 | 62 | 200 | 0.0 | 0.0 | 0.00 | 0.07 | 0.00 | 96 | 1009.0 |
| 20260904073544 | 62 | 200 | 0.0 | 0.0 | 0.00 | 0.07 | 0.00 | 96 | 1008.9 |
| 20260904073043 | 62 | 200 | 0.0 | 0.0 | 0.00 | 0.07 | 0.00 | 96 | 1009.1 |
| 20260904072543 | 62 | 200 | 0.0 | 0.0 | 0.00 | 0.07 | 0.00 | 96 | 1009.1 |
| 20260904072042 | 62 | 200 | 0.0 | 0.0 | 0.00 | 0.07 | 0.00 | 96 | 1009.1 |
| 20260904071542 | 62 | 200 | 0.0 | 0.0 | 0.00 | 0.07 | 0.00 | 96 | 1009.2 |
| 20260904071041 | 62 | 200 | 0.0 | 0.0 | 0.00 | 0.07 | 0.00 | 96 | 1009.2 |
| 20260904070541 | 62 | 200 | 0.0 | 0.0 | 0.00 | 0.07 | 0.00 | 96 | 1009.3 |
| 20260904070047 | 62 | 200 | 0.0 | 0.0 | 0.00 | 0.07 | 0.00 | 96 | 1009.3 |
| 20260904065538 | 62 | 200 | 0.0 | 0.0 | 0.00 | 0.07 | 0.00 | 96 | 1009.4 |
| 20260904065039 | 61 | 200 | 0.0 | 0.0 | 0.00 | 0.07 | 0.00 | 96 | 1009.3 |
| 20260904064538 | 61 | 200 | 0.0 | 0.0 | 0.00 | 0.07 | 0.00 | 96 | 1009.4 |
| 20260904064042 | 61 | 200 | 0.0 | 0.0 | 0.00 | 0.07 | 0.00 | 96 | 1009.4 |
| 20260904063537 | 61 | 200 | 0.0 | 0.0 | 0.00 | 0.07 | 0.00 | 96 | 1009.4 |
| 20260904063047 | 61 | 200 | 0.0 | 2.0 | 0.00 | 0.07 | 0.00 | 96 | 1009.6 |
| 20260904062535 | 61 | 200 | 0.0 | 2.0 | 0.00 | 0.07 | 0.00 | 96 | 1009.5 |
| 20260904062038 | 61 | 200 | 0.0 | 0.0 | 0.00 | 0.07 | 0.00 | 96 | 1009.6 |
| 20260904061535 | 61 | 200 | 0.0 | 0.0 | 0.00 | 0.07 | 0.00 | 96 | 1009.6 |
| 20260904061035 | 61 | 200 | 0.0 | 0.0 | 0.00 | 0.07 | 0.00 | 96 | 1009.7 |
| 20260904060533 | 61 | 200 | 0.0 | 0.0 | 0.00 | 0.07 | 0.00 | 96 | 1009.7 |
| 20260904060034 | 61 | 200 | 0.0 | 0.0 | 0.00 | 0.07 | 0.00 | 95 | 1009.8 |
| 20260904055534 | 61 | 200 | 0.0 | 0.0 | 0.00 | 0.07 | 0.00 | 95 | 1009.8 |
| 20260904055031 | 61 | 200 | 0.0 | 0.0 | 0.00 | 0.07 | 0.00 | 96 | 1010.0 |
| 20260904054539 | 61 | 200 | 0.0 | 0.0 | 0.00 | 0.07 | 0.00 | 95 | 1010.1 |
| 20260904054032 | 61 | 200 | 0.0 | 0.0 | 0.00 | 0.07 | 0.00 | 95 | 1010.1 |
| 20260904053530 | 61 | 200 | 0.0 | 0.0 | 0.00 | 0.07 | 0.00 | 95 | 1010.3 |
| 20260904053036 | 61 | 200 | 0.0 | 0.0 | 0.00 | 0.07 | 0.00 | 95 | 1010.4 |
| 20260904052530 | 61 | 200 | 0.0 | 0.0 | 0.00 | 0.07 | 0.00 | 95 | 1010.3 |
| 20260904052029 | 61 | 200 | 0.0 | 0.0 | 0.00 | 0.07 | 0.00 | 95 | 1010.4 |
| 20260904051528 | 60 | 200 | 0.0 | 0.0 | 0.00 | 0.07 | 0.00 | 95 | 1010.4 |
| 20260904051033 | 60 | 200 | 0.0 | 0.0 | 0.00 | 0.07 | 0.00 | 95 | 1010.4 |
| 20260904050528 | 60 | 200 | 0.0 | 2.0 | 0.00 | 0.07 | 0.00 | 95 | 1010.3 |
| 20260904050027 | 61 | 200 | 0.0 | 2.0 | 0.00 | 0.07 | 0.00 | 95 | 1010.4 |
| 20260904045528 | 61 | 200 | 1.0 | 2.0 | 0.00 | 0.07 | 0.00 | 95 | 1010.5 |
| 20260904045027 | 61 | 200 | 0.0 | 0.0 | 0.00 | 0.07 | 0.00 | 95 | 1010.5 |
| 20260904044534 | 61 | 200 | 0.0 | 1.0 | 0.00 | 0.07 | 0.00 | 95 | 1010.4 |
| 20260904044029 | 61 | 200 | 0.0 | 1.0 | 0.00 | 0.07 | 0.00 | 95 | 1010.5 |
| 20260904043526 | 61 | 200 | 0.0 | 2.0 | 0.00 | 0.07 | 0.00 | 95 | 1010.5 |
| 20260904043037 | 61 | 200 | 0.0 | 2.0 | 0.00 | 0.07 | 0.00 | 95 | 1010.6 |
| 20260904042527 | 61 | 200 | 1.0 | 2.0 | 0.00 | 0.07 | 0.00 | 95 | 1010.5 |
| 20260904042024 | 61 | 200 | 0.0 | 1.0 | 0.00 | 0.07 | 0.00 | 94 | 1010.7 |
| 20260904041524 | 61 | 200 | 0.0 | 2.0 | 0.00 | 0.07 | 0.00 | 94 | 1010.7 |
| 20260904041023 | 61 | 200 | 0.0 | 2.0 | 0.00 | 0.07 | 0.00 | 94 | 1010.7 |
| 20260904040522 | 61 | 200 | 1.0 | 2.0 | 0.00 | 0.07 | 0.00 | 94 | 1010.7 |
| 20260904040022 | 61 | 201 | 0.0 | 2.0 | 0.00 | 0.07 | 0.07 | 94 | 1010.8 |
| 20260904035524 | 61 | 200 | 0.0 | 2.0 | 0.00 | 0.07 | 0.07 | 94 | 1010.9 |
| 20260904035022 | 61 | 201 | 0.0 | 2.0 | 0.00 | 0.07 | 0.07 | 94 | 1011.0 |
| 20260904034521 | 61 | 200 | 0.0 | 0.0 | 0.00 | 0.07 | 0.07 | 94 | 1011.0 |
| 20260904034022 | 61 | 200 | 0.0 | 0.0 | 0.00 | 0.07 | 0.07 | 94 | 1010.8 |
| 20260904033526 | 61 | 199 | 0.0 | 1.0 | 0.00 | 0.07 | 0.07 | 94 | 1010.9 |
| 20260904033029 | 61 | 199 | 0.0 | 3.0 | 0.00 | 0.07 | 0.07 | 94 | 1010.7 |
| 20260904032520 | 62 | 199 | 0.0 | 3.0 | 0.00 | 0.07 | 0.07 | 94 | 1010.6 |
| 20260904032020 | 62 | 199 | 1.0 | 2.0 | 0.00 | 0.07 | 0.07 | 94 | 1010.5 |
| 20260904031520 | 62 | 199 | 0.0 | 3.0 | 0.00 | 0.07 | 0.07 | 94 | 1010.7 |
| 20260904031019 | 62 | 199 | 1.0 | 3.0 | 0.00 | 0.07 | 0.07 | 94 | 1010.6 |
| 20260904030518 | 62 | 200 | 1.0 | 2.0 | 0.00 | 0.07 | 0.07 | 94 | 1010.7 |
| 20260904030017 | 62 | 200 | 0.0 | 4.0 | 0.00 | 0.07 | 0.07 | 94 | 1010.9 |
| 20260904025517 | 62 | 201 | 1.0 | 4.0 | 0.00 | 0.07 | 0.07 | 94 | 1011.1 |
| 20260904025017 | 62 | 286 | 0.0 | 2.0 | 0.00 | 0.07 | 0.07 | 94 | 1011.1 |
| 20260904024517 | 62 | 287 | 0.0 | 0.0 | 0.00 | 0.07 | 0.07 | 94 | 1011.1 |
| 20260904024017 | 62 | 287 | 0.0 | 0.0 | 0.00 | 0.07 | 0.07 | 94 | 1011.2 |
| 20260904023519 | 62 | 287 | 0.0 | 0.0 | 0.00 | 0.07 | 0.07 | 93 | 1011.2 |
| 20260904023016 | 62 | 287 | 0.0 | 0.0 | 0.00 | 0.07 | 0.07 | 93 | 1011.2 |
| 20260904022517 | 62 | 287 | 0.0 | 2.0 | 0.00 | 0.07 | 0.07 | 93 | 1011.3 |
| 20260904022019 | 62 | 287 | 0.0 | 2.0 | 0.00 | 0.07 | 0.07 | 93 | 1011.3 |
| 20260904021518 | 63 | 287 | 0.0 | 1.0 | 0.00 | 0.07 | 0.07 | 93 | 1011.3 |
| 20260904021015 | 63 | 287 | 0.0 | 1.0 | 0.00 | 0.07 | 0.07 | 93 | 1011.2 |
| 20260904020515 | 63 | 287 | 0.0 | 1.0 | 0.00 | 0.07 | 0.07 | 93 | 1011.2 |
| 20260904020116 | 63 | 287 | 0.0 | 1.0 | 0.00 | 0.07 | 0.07 | 93 | 1011.3 |
| 20260904015519 | 63 | 287 | 0.0 | 2.0 | 0.00 | 0.07 | 0.07 | 93 | 1011.4 |
| 20260904015020 | 63 | 287 | 1.0 | 2.0 | 0.00 | 0.07 | 0.07 | 93 | 1011.3 |
| 20260904014515 | 64 | 287 | 1.0 | 2.0 | 0.00 | 0.07 | 0.07 | 93 | 1011.3 |
| 20260904014017 | 64 | 287 | 1.0 | 3.0 | 0.00 | 0.07 | 0.07 | 93 | 1011.3 |
| 20260904013514 | 64 | 287 | 0.0 | 3.0 | 0.00 | 0.07 | 0.07 | 93 | 1011.5 |
| 20260904013014 | 64 | 312 | 0.0 | 0.0 | 0.00 | 0.07 | 0.07 | 93 | 1011.5 |
| 20260904012514 | 64 | 313 | 0.0 | 0.0 | 0.00 | 0.07 | 0.07 | 93 | 1011.4 |
| 20260904012014 | 64 | 313 | 0.0 | 0.0 | 0.00 | 0.07 | 0.07 | 93 | 1011.5 |
| 20260904011514 | 64 | 313 | 0.0 | 0.0 | 0.00 | 0.07 | 0.07 | 93 | 1011.7 |
| 20260904011018 | 64 | 313 | 0.0 | 1.0 | 0.00 | 0.07 | 0.07 | 93 | 1011.6 |
| 20260904010513 | 64 | 313 | 0.0 | 1.0 | 0.00 | 0.07 | 0.07 | 93 | 1011.6 |
| 20260904010015 | 64 | 313 | 0.0 | 1.0 | 0.00 | 0.07 | 0.07 | 93 | 1011.7 |
| 20260904005513 | 64 | 313 | 0.0 | 0.0 | 0.00 | 0.07 | 0.07 | 93 | 1011.5 |
| 20260904005012 | 64 | 313 | 0.0 | 0.0 | 0.00 | 0.07 | 0.07 | 93 | 1011.4 |
| 20260904004514 | 64 | 313 | 0.0 | 0.0 | 0.00 | 0.07 | 0.07 | 93 | 1011.4 |
| 20260904004012 | 64 | 313 | 0.0 | 0.0 | 0.00 | 0.07 | 0.07 | 93 | 1011.4 |
| 20260904003513 | 64 | 313 | 0.0 | 1.0 | 0.00 | 0.07 | 0.07 | 93 | 1011.4 |
| 20260904003013 | 64 | 313 | 0.0 | 2.0 | 0.00 | 0.07 | 0.07 | 93 | 1011.3 |
| 20260904002513 | 64 | 313 | 0.0 | 2.0 | 0.00 | 0.07 | 0.07 | 93 | 1011.4 |
| 20260904002013 | 64 | 313 | 1.0 | 2.0 | 0.00 | 0.07 | 0.07 | 92 | 1011.7 |
| 20260904001512 | 64 | 313 | 0.0 | 3.0 | 0.00 | 0.07 | 0.07 | 92 | 1011.4 |
| 20260904001011 | 64 | 313 | 1.0 | 3.0 | 0.00 | 0.07 | 0.07 | 92 | 1011.5 |
| 20260904000511 | 64 | 313 | 0.0 | 0.0 | 0.00 | 0.07 | 0.07 | 92 | 1011.1 |
| 20260904000012 | 64 | 313 | 0.0 | 0.0 | 0.00 | 0.07 | 0.07 | 92 | 1011.3 |
| 20260903235510 | 64 | 313 | 0.0 | 0.0 | 0.00 | 0.07 | 0.07 | 92 | 1011.3 |
| 20260903235010 | 64 | 313 | 0.0 | 0.0 | 0.00 | 0.07 | 0.07 | 91 | 1011.2 |
| 20260903234510 | 64 | 313 | 0.0 | 0.0 | 0.00 | 0.07 | 0.07 | 91 | 1011.2 |
| 20260903234010 | 64 | 313 | 0.0 | 0.0 | 0.00 | 0.07 | 0.07 | 91 | 1011.2 |
| 20260903233512 | 64 | 313 | 0.0 | 0.0 | 0.00 | 0.07 | 0.07 | 91 | 1011.3 |
| 20260903233024 | 65 | 313 | 0.0 | 2.0 | 0.00 | 0.07 | 0.07 | 91 | 1011.2 |
| 20260903232510 | 65 | 313 | 0.0 | 2.0 | 0.00 | 0.07 | 0.07 | 91 | 1011.4 |
| 20260903232008 | 65 | 313 | 0.0 | 2.0 | 0.00 | 0.07 | 0.07 | 91 | 1011.4 |
| 20260903231508 | 65 | 313 | 0.0 | 1.0 | 0.00 | 0.07 | 0.07 | 91 | 1011.5 |
| 20260903231007 | 65 | 313 | 0.0 | 1.0 | 0.00 | 0.07 | 0.07 | 91 | 1011.5 |
| 20260903230507 | 65 | 313 | 0.0 | 2.0 | 0.00 | 0.07 | 0.07 | 90 | 1011.5 |
| 20260903230007 | 65 | 313 | 0.0 | 2.0 | 0.00 | 0.07 | 0.07 | 91 | 1011.6 |
| 20260903225510 | 65 | 313 | 0.0 | 2.0 | 0.00 | 0.07 | 0.07 | 91 | 1011.5 |
| 20260903225007 | 65 | 313 | 0.0 | 2.0 | 0.00 | 0.07 | 0.07 | 91 | 1011.5 |
| 20260903224507 | 65 | 313 | 0.0 | 1.0 | 0.00 | 0.07 | 0.07 | 90 | 1011.5 |